Location: Complexul Astronomic Baia Mare
(47.6577°N, 23.5639°E)
Time: 06:54:32
(UTC+03:00)

ISS - Pass Details

Date: 11 May 2017
Orbit: 402 x 408 km, 51.6° (Epoch: 29 May)

Event Time Altitude Azimuth Distance (km) Brightness Sun altitude
Exits shadow 04:36:27 19° 229° (SW) 1,035 -2.4 -11.4°
Maximum altitude 04:38:37 64° 151° (SSE) 453 -3.7 -11.1°
Drops below altitude 10° 04:41:52 10° 70° (ENE) 1,463 0.2 -10.7°
Sets 04:43:57 0° 67° (ENE) 2,324 1.6 -10.4°
